Regional Weather Roundup
Issued by NWS

Home | Current Version | Previous Version | Text Only | Print | Product List | Glossary On
Versions: 1 2 3 4 5 6 7 8 9 10 11 12 13 14 15 16 17 18 19 20 21 22 23 24 25 26 27 28 29 30 31 32 33 34 35 36 37 38 39 40 41 42 43 44 45 46 47 48 49 50
000
ASUS43 KMPX 221610
RWRMN
WEATHER ROUNDUP FOR MINNESOTA
NATIONAL WEATHER SERVICE TWIN CITIES/CHANHASSEN MN
1100 AM CDT SUN OCT 22 2017


NOTE: "FAIR" INDICATES FEW OR NO CLOUDS BELOW 12,000 FEET WITH NO
SIGNIFICANT WEATHER AND/OR OBSTRUCTIONS TO VISIBILITY. N/A MEANS
CURRENT SKY AND/OR WEATHER CONDITIONS ARE NOT AVAILABLE.

MNZ060>063-068>070-221700-
   Twin Cities Metro

CITY           SKY/WX    TMP DP  RH WIND       PRES   REMARKS
TWIN CITIES    CLOUDY    50  42  74 SW8       30.01R
ST PAUL        CLOUDY    52  42  69 W7        30.01R
CRYSTAL        CLOUDY    50  38  63 SW9       29.99R
BLAINE         MOSUNNY   52  43  71 SW5       29.99R
LAKEVILLE      CLOUDY    48  41  76 SW6       30.01R
EDEN PRAIRIE   CLOUDY    48  42  80 SW9       30.00R
SOUTH ST PAUL  CLOUDY    51  41  68 SW5       30.00S
LAKE ELMO      FAIR      52  43  71 SW6       30.01R
$$
MNZ001>005-007-008-013>017-022>024-027-028-221700-
   Northwest Minnesota

CITY           SKY/WX    TMP DP  RH WIND       PRES   REMARKS
BEMIDJI        SUNNY     49  34  55 W14G21    29.85R
HALLOCK        SUNNY     50  36  57 W21G26    29.77R
ROSEAU         SUNNY     48  39  71 SW17G23   29.75S
WARROAD        SUNNY     48  37  66 W16G25    29.75R
THIEF RVR FALL SUNNY     50  34  54 W18       29.83S
CROOKSTON      SUNNY     52  34  50 SW14      29.85S
FOSSTON        SUNNY     48  32  53 SW16      29.86S
DETROIT LAKES  SUNNY     50  34  53 W9        29.91R
MOORHEAD       SUNNY     48  34  57 SW12      29.90F
PARK RAPIDS    SUNNY     52  36  54 W12G21    29.89R
MAHNOMEN       FAIR      49  34  56 W16       29.88R
$$
MNZ006-009>011-018-025>026-221700-
   North Central Minnesota

CITY           SKY/WX    TMP DP  RH WIND       PRES   REMARKS
BAUDETTE       SUNNY     50  37  61 W18G30    29.73F
FLAG ISLAND    MOSUNNY   46  37  71 SW22      29.69R
INTL FALLS     SUNNY     50  37  61 SW15G28   29.76R
WASKISH        SUNNY     48  39  71 SW17G26   29.80R
BIG FORK       SUNNY     52  37  58 SW12G21   29.82R
LONGVILLE      SUNNY     52  37  58 SW8       29.88R
GRAND RAPIDS   SUNNY     50  36  58 W16G22    29.88R
CRANE LAKE     CLOUDY    45  37  76 SW8       29.80S
ORR            MOSUNNY   48  37  66 SW5       29.78S
COOK           PTSUNNY   46  39  76 SW10G16   29.83R
WALKER         FAIR      51  33  50 SW15G23   29.87R
$$
MNZ012-019>021-037-221700-
   Northeast Minnesota

CITY           SKY/WX    TMP DP  RH WIND       PRES   REMARKS
DULUTH         CLOUDY    47  41  80 W15       29.88R
ELY            CLOUDY    46  39  76 W15G23    29.82R
HIBBING        CLOUDY    45  38  76 VRB7      29.85R
EVELETH        CLOUDY    46  41  82 SW12      29.86R
DULUTH HARBOR  CLOUDY    52  45  76 SW14      29.91R
TWO HARBORS    CLOUDY    52  45  76 SW7       29.85R
SILVER BAY     CLOUDY    48  43  81 SW5       29.84R
G MARAIS ARPRT MOSUNNY   45  36  70 SW5       29.81S
$$
MNZ029>031-032-039>041-046>048-054>057-064-221700-
   West Central Minnesota

CITY           SKY/WX    TMP DP  RH WIND       PRES   REMARKS
FERGUS FALLS   SUNNY     48  36  61 W9        29.94R
WHEATON        SUNNY     54  34  47 SW10      29.97R
MORRIS         SUNNY     52  37  58 W10       29.96R
ALEXANDRIA     SUNNY     51  36  56 W12       29.96R
ELBOW LAKE     FAIR      50  37  61 SW9       29.96R
WADENA         SUNNY     50  36  57 SW8       29.91R
GLENWOOD       SUNNY     50  37  62 W13       29.97R
APPLETON       SUNNY     54  36  50 SW13      29.98S
BENSON         SUNNY     52  37  58 W13       29.99R
ORTONVILLE     SUNNY     55  34  44 W12       29.97S
MADISON        SUNNY     55  37  50 SW10      29.99S
WILLMAR        FAIR      52  41  66 W9        30.00S
$$
MNZ033>034-036-042>043-049>051-058-059-221700-
   Central Minnesota

CITY           SKY/WX    TMP DP  RH WIND       PRES   REMARKS
ST CLOUD       SUNNY     53  41  63 W10       29.97R
SAUK CENTRE    FAIR      51  38  60 W10       29.96R
PAYNESVILLE    SUNNY     51  40  63 SW9       29.98R
AITKIN         SUNNY     52  36  54 SW8       29.89R
PINE RIVER     SUNNY     50  36  57 W7        29.93R
BRAINERD       SUNNY    N/A N/A N/A SW14      29.92R
STAPLES        SUNNY     52  36  54 SW7       29.92R
LONG PRAIRIE   FAIR      50  37  62 SW9       29.95R
LITTLE FALLS   SUNNY     52  32  46 SW8       29.95R
LITCHFIELD     SUNNY     54  41  62 SW6       29.99F
BUFFALO        SUNNY     53  40  63 SW6       30.00R
MAPLE LAKE     SUNNY     54  43  66 SW7       30.00R
HUTCHINSON     SUNNY     53  41  63 W7        30.01S
$$
MNZ037-044-045-052-053-221700-
   East Central Minnesota

CITY           SKY/WX    TMP DP  RH WIND       PRES   REMARKS
PRINCETON      MOSUNNY   54  43  66 SW8       29.97S
MORA           CLOUDY    46  39  76 SW6       29.98R
CAMBRIDGE      MOSUNNY   52  39  62 SW6       29.98R
RUSH CITY      CLOUDY    50  41  70 SW7       29.97R
MOOSE LAKE     CLOUDY    48  41  76 CALM      29.91R
HINCKLEY       FAIR      50  41  71 SW7       29.95R
CLOQUET        CLOUDY    48  37  66 SW8       29.90R
MCGREGOR       MOSUNNY   50  39  66 W8        29.91R
$$
MNZ071>073-080-081-089-090-097-098-221700-
   Southwest Minnesota

CITY           SKY/WX    TMP DP  RH WIND       PRES   REMARKS
MONTEVIDEO     SUNNY     55  37  50 W9        30.00R
GRANITE FALLS  SUNNY     56  41  57 SW13      30.02R
CANBY          SUNNY     55  34  45 SW9G16    30.02S
MARSHALL       SUNNY     56  35  45 W15       30.02R
REDWOOD FALLS  SUNNY     54  37  52 W9        30.01R
OLIVIA         SUNNY     54  41  62 W8        29.99S
PIPESTONE      SUNNY     48  36  61 W6        30.03S
WORTHINGTON    SUNNY     52  37  56 W10       30.05S
JACKSON        SUNNY     54  36  50 SW8       30.05S
TRACY          SUNNY     56  38  49 W7        30.03S
SLAYTON        SUNNY     51  36  56 W8        30.04F
$$
MNZ065>067-074>077-082>085-091>093-221700-
   South Central Minnesota

CITY           SKY/WX    TMP DP  RH WIND       PRES   REMARKS
MANKATO        MOSUNNY   51  40  65 SW5       30.03R
NEW ULM          N/A     54  39  58 CALM      30.02S
ST JAMES       SUNNY     55  39  54 SW7       30.04S
FAIRMONT       SUNNY     54  40  59 W10       30.05R
GLENCOE        SUNNY     53  40  62 SW5       30.00S
FARIBAULT      CLOUDY    52  43  71 SW6       30.03R
OWATONNA       CLOUDY    52  43  71 W7        30.02S
WASECA         CLOUDY    48  41  76 W7        30.04S
$$
MNZ078>079-086>088-094>096-221700-
   Southeast Minnesota

CITY           SKY/WX    TMP DP  RH WIND       PRES   REMARKS
ROCHESTER      PTSUNNY   49  44  83 W9        30.03R
RED WING       CLOUDY    52  39  62 W6        30.01R
STANTON        CLOUDY    52  43  71 SW6       30.01R
DODGE CENTER   CLOUDY    48  39  71 W7        30.02S
WINONA         CLOUDY    54  45  71 W5        30.01R
AUSTIN         CLOUDY    50  41  71 W5        30.03S
PRESTON        CLOUDY    48  41  76 NW10      30.02S
$$
ABBREVIATIONS USED IN REMARKS
   TC - TEMPERATURES IN CELSIUS
  WCI - WIND CHILL INDEX
   HX - HEAT INDEX
  VSB - VISIBILITY
$$




USA.gov is the U.S. government's official web portal to all federal, state and local government web resources and services.